User: anonymous   Login
Location: Newark
(59.8814°N, 10.8258°E)
Time: 12:43:50
(UTC+00:00)
Language:

Envisat - Orbit

View from above orbital plane
View from above orbital plane
View from above satellite
View from above satellite

Ground track
Ground track

The orbit data is extracted from the following two-line orbital elements,

1 27386U 02009A   20059.78318455 -.00000003 +00000-0 +12566-4 0  9992
2 27386 098.1400 072.5815 0001239 095.1942 077.7624 14.37972648942855
Epoch (UTC): 28 February 2020 18:47:47
Eccentricity: 0.0001239
inclination: 98.1400°
perigee height: 764 km
apogee height: 766 km
right ascension of ascending node: 72.5815°
argument of perigee: 95.1942°
revolutions per day: 14.37972648
mean anomaly at epoch: 77.7624°
orbit number at epoch: 94285

The dashed part of the orbit path shows where the satellite is in the earth's shadow,  

DLR